Location: Unspecified
(33.9239°N, 118.0544°W)
Time: 08:41:03
(UTC-07:00)

Resurs 1-4 Rocket - Visible Passes

Search period start: 26 May 2018 00:00
Search period end: 05 June 2018 00:00
Orbit: 799 x 814 km, 98.5° (Epoch: 25 May)

Date Brightness Start Highest point End Pass type
(mag) Time Alt. Az. Time Alt. Az. Time Alt. Az.
26 May 4.6 01:28:28 10° ENE 01:29:44 12° E 01:29:44 12° E visible
26 May 2.0 03:05:16 10° N 03:10:32 67° WNW 03:10:49 66° W visible
27 May 2.2 02:40:41 10° NNE 02:45:59 70° E 02:45:59 70° E visible
27 May 4.1 04:22:57 10° NW 04:25:10 13° WNW 04:27:03 11° W visible
28 May 3.1 02:16:24 10° NNE 02:21:08 39° E 02:21:08 39° E visible
28 May 3.5 03:56:54 10° NNW 04:00:54 22° WNW 04:02:13 20° W visible
29 May 3.9 01:52:33 10° NE 01:56:17 22° E 01:56:17 22° E visible
29 May 2.8 03:31:41 10° N 03:36:31 37° WNW 03:37:22 35° W visible
30 May 4.5 01:29:44 10° ENE 01:31:26 12° E 01:31:26 12° E visible
30 May 2.1 03:06:48 10° N 03:12:04 65° WNW 03:12:31 62° WSW visible
31 May 2.1 02:42:12 10° NNE 02:47:32 73° ESE 02:47:40 72° ESE visible
31 May 4.1 04:24:38 10° NW 04:26:41 12° WNW 04:28:42 10° W visible
01 Jun 3.0 02:17:54 10° NNE 02:22:49 41° E 02:22:49 41° E visible
01 Jun 3.6 03:58:30 10° NNW 04:02:24 21° WNW 04:03:54 19° W visible
02 Jun 3.8 01:54:00 10° NE 01:57:58 23° E 01:57:58 23° E visible
02 Jun 2.9 03:33:14 10° N 03:38:02 36° WNW 03:39:03 33° W visible
03 Jun 4.5 01:31:03 10° ENE 01:33:07 13° E 01:33:07 13° E visible
03 Jun 2.1 03:08:21 10° N 03:13:35 62° WNW 03:14:12 58° WSW visible
04 Jun 2.0 02:43:43 10° NNE 02:49:04 76° ESE 02:49:20 74° SE visible
04 Jun 4.2 04:26:22 10° NW 04:28:10 12° WNW 04:29:59 10° W visible
